EW9596 Weather Reports


time (UTC)temp
C
wind
direction
speed
KPH
gust
KPH
rain 1hr
cm
rain 24hr
cm
rain mn
cm
humidity
%
barometer
mb
20260901203536 27 279 3.2 8.0 0.00 2.21 2.01 85 1014.3
20260901203036 27 233 3.2 6.4 0.00 2.21 2.01 87 1014.3
20260901202533 27 263 0.0 8.0 0.00 2.21 2.01 89 1014.3
20260901202032 27 257 3.2 8.0 0.00 2.21 2.01 90 1014.4
20260901201532 27 199 0.0 0.0 0.00 2.21 2.01 92 1014.3
20260901201031 27 201 0.0 8.0 0.00 2.21 2.01 92 1014.4
20260901200529 26 225 0.0 8.0 0.00 2.21 2.01 92 1014.5
20260901200035 26 275 0.0 4.8 0.00 2.21 2.01 93 1014.5
20260901195529 26 173 0.0 8.0 0.00 2.31 2.01 93 1014.4
20260901195028 26 175 0.0 8.0 0.00 2.31 2.01 93 1014.4
20260901194529 26 217 0.0 3.2 0.00 2.31 2.01 94 1014.4
20260901194030 26 218 0.0 6.4 0.00 2.31 2.01 94 1014.4
20260901193527 26 220 3.2 6.4 0.00 2.31 2.01 94 1014.5
20260901193026 26 226 1.6 6.4 0.00 2.31 2.01 94 1014.5
20260901192526 26 227 1.6 6.4 0.00 2.31 2.01 94 1014.6
20260901192025 26 167 0.0 3.2 0.00 2.31 2.01 95 1014.6
20260901191547 26 169 0.0 4.8 0.00 2.31 2.01 95 1014.6
20260901191024 26 295 1.6 4.8 0.00 2.31 2.01 95 1014.6
20260901190523 25 224 0.0 8.0 0.00 2.31 2.01 95 1014.6
20260901190023 25 259 3.2 11.3 0.00 2.31 2.01 95 1014.6
20260901185524 25 262 3.2 12.9 0.00 2.41 2.01 95 1014.6
20260901185021 25 229 4.8 12.9 0.00 2.41 2.01 94 1014.6
20260901184521 25 256 4.8 12.9 0.00 2.41 2.01 95 1014.6
20260901184020 25 242 3.2 6.4 0.00 2.41 2.01 95 1014.5
20260901183520 25 239 0.0 6.4 0.00 2.41 2.01 95 1014.6
20260901183018 25 240 1.6 6.4 0.00 2.41 2.01 95 1014.6
20260901182518 25 265 0.0 6.4 0.00 2.41 2.01 95 1014.5
20260901182016 25 252 1.6 6.4 0.00 2.41 2.01 95 1014.4
20260901181517 25 255 0.0 9.7 0.00 2.41 2.01 95 1014.4
20260901181017 25 213 3.2 9.7 0.00 2.41 2.01 95 1014.4
20260901180516 25 207 1.6 6.4 0.00 2.41 2.01 95 1014.3
20260901180018 25 211 3.2 6.4 0.00 2.41 2.01 95 1014.3
20260901175514 24 342 0.0 0.0 0.00 2.57 2.01 96 1014.4
20260901175012 23 9 0.0 0.0 0.00 2.57 2.01 96 1014.4
20260901174513 23 74 0.0 0.0 0.00 2.57 2.01 96 1014.4
20260901174011 23 76 0.0 0.0 0.00 2.57 2.01 95 1014.4
20260901173507 22 76 0.0 0.0 0.00 2.57 2.01 95 1014.5
20260901173007 22 64 0.0 0.0 0.00 2.57 2.01 95 1014.5
20260901172505 22 60 0.0 0.0 0.00 2.57 2.01 95 1014.5
20260901172006 22 60 0.0 0.0 0.00 2.57 2.01 95 1014.6
20260901171502 22 60 0.0 0.0 0.03 2.57 2.01 95 1014.5
20260901171001 22 59 0.0 0.0 0.03 2.57 2.01 95 1014.6
20260901170600 22 59 0.0 0.0 0.03 2.57 2.01 95 1014.6
20260901170059 22 59 0.0 0.0 0.03 2.57 2.01 94 1014.5
20260901165557 22 59 0.0 0.0 0.03 2.92 2.01 94 1014.5
20260901165056 22 59 0.0 0.0 0.03 2.92 2.01 94 1014.6
20260901164555 22 59 0.0 0.0 0.03 2.92 2.01 94 1014.7
20260901164054 22 59 0.0 0.0 0.03 2.92 2.01 94 1014.7
20260901163552 22 59 0.0 0.0 0.03 2.92 2.01 94 1014.7
20260901163050 22 59 0.0 0.0 0.03 2.92 2.01 94 1014.6
20260901162551 22 59 0.0 0.0 0.03 2.92 2.01 94 1014.7
20260901162047 22 59 0.0 0.0 0.03 2.92 2.01 95 1014.8
20260901161601 22 59 0.0 0.0 0.00 2.90 1.98 95 1014.7
20260901161045 22 59 0.0 0.0 0.00 2.90 1.98 95 1014.8
20260901160544 22 60 0.0 0.0 0.00 2.90 1.98 95 1014.7
20260901160043 22 60 0.0 0.0 0.00 2.90 1.98 95 1014.8
20260901155541 22 60 0.0 0.0 0.00 2.92 1.98 95 1014.8
20260901155039 22 60 0.0 0.0 0.00 2.92 1.98 95 1014.9
20260901154551 22 60 0.0 0.0 0.00 2.92 1.98 95 1014.9
20260901154040 22 60 0.0 0.0 0.00 2.92 1.98 94 1014.9
20260901153535 21 60 0.0 0.0 0.00 2.92 1.98 94 1015.0
20260901153040 21 60 0.0 0.0 0.00 2.92 1.98 94 1015.0
20260901152533 21 60 0.0 0.0 0.00 2.92 1.98 94 1015.0
20260901152032 21 60 0.0 0.0 0.00 2.92 1.98 94 1014.9
20260901151534 21 60 0.0 0.0 0.00 2.92 1.98 94 1014.9
20260901151033 21 60 0.0 0.0 0.00 2.92 1.98 94 1014.9
20260901150530 21 60 0.0 0.0 0.03 2.92 1.98 94 1014.8
20260901150038 21 60 0.0 0.0 0.08 2.92 1.98 94 1014.9
20260901145530 21 59 0.0 0.0 0.15 2.92 1.98 94 1014.9
20260901145029 21 59 0.0 0.0 0.25 2.92 1.98 94 1014.9
20260901144537 21 59 0.0 0.0 0.25 2.92 1.98 94 1014.8
20260901144026 21 60 0.0 0.0 0.43 2.92 1.98 94 1014.8
20260901143526 21 60 0.0 3.2 0.61 2.92 1.98 94 1014.9
20260901143025 21 60 0.0 4.8 0.69 2.92 1.98 94 1015.0
20260901142525 21 333 0.0 4.8 0.69 2.92 1.98 94 1015.0
20260901142024 21 333 0.0 4.8 0.69 2.92 1.98 94 1014.9
20260901141624 21 332 3.2 4.8 0.69 2.92 1.98 94 1014.9
20260901141023 21 272 0.0 0.0 0.69 2.92 1.98 94 1014.8
20260901140524 21 272 0.0 0.0 0.69 2.90 1.96 94 1015.0
20260901140023 21 272 0.0 0.0 0.66 2.84 1.91 94 1015.3
20260901135523 21 272 0.0 0.0 0.69 2.79 1.83 94 1015.3
20260901135024 21 178 0.0 0.0 0.64 2.69 1.73 94 1015.2
20260901134526 21 156 0.0 0.0 0.69 2.69 1.73 94 1015.0
20260901134023 21 178 0.0 0.0 0.58 2.49 1.52 94 1015.3
20260901133522 21 178 0.0 0.0 0.69 2.31 1.35 94 1015.2
20260901133022 21 178 0.0 0.0 0.76 2.26 1.30 94 1015.2
20260901132521 21 178 0.0 0.0 0.86 2.26 1.30 94 1015.2
20260901132021 20 178 0.0 0.0 0.89 2.26 1.30 94 1015.3
20260901131524 20 178 0.0 0.0 0.94 2.26 1.30 94 1015.3
20260901131020 20 178 0.0 0.0 1.07 2.26 1.30 94 1015.4
20260901130520 20 178 0.0 4.8 1.14 2.24 1.27 94 1015.5
20260901130025 20 179 1.6 4.8 1.14 2.21 1.24 94 1015.7
20260901125520 20 26 1.6 4.8 1.04 2.08 1.12 94 1015.8
20260901125019 20 167 0.0 8.0 1.02 2.06 1.09 94 1015.5
20260901124520 20 150 0.0 8.0 0.97 2.01 1.04 94 1015.4
20260901124017 20 98 0.0 1.6 0.86 1.91 0.94 94 1015.6
20260901123517 20 96 0.0 4.8 0.58 1.63 0.66 94 1015.8
20260901123016 20 95 1.6 4.8 0.43 1.45 0.51 94 1015.9
20260901122517 20 336 0.0 6.4 0.36 1.40 0.43 94 1016.0
20260901122016 20 119 1.6 6.4 0.33 1.37 0.41 94 1016.0
20260901121516 20 18 0.0 0.0 0.25 1.30 0.33 94 1016.4
20260901121015 20 133 0.0 0.0 0.15 1.19 0.23 94 1016.1
20260901120515 20 143 0.0 0.0 0.05 1.09 0.13 94 1016.0
20260901120014 20 144 0.0 0.0 0.00 1.04 0.08 94 1015.9
20260901115515 20 144 0.0 4.8 0.00 1.04 0.08 94 1015.3
20260901115016 20 325 0.0 4.8 0.00 1.04 0.08 94 1016.1
20260901114513 20 132 0.0 0.0 0.00 1.04 0.08 94 1015.5
20260901114012 20 133 0.0 0.0 0.00 1.04 0.08 94 1015.6
20260901113512 20 69 0.0 0.0 0.00 1.04 0.08 94 1015.8
20260901113011 20 69 0.0 3.2 0.03 1.04 0.08 94 1015.7
20260901112511 20 69 0.0 4.8 0.03 1.04 0.08 93 1015.4
20260901112011 20 69 1.6 4.8 0.03 1.04 0.08 94 1015.0
20260901111511 20 292 3.2 4.8 0.03 1.04 0.08 94 1015.0
20260901111011 20 301 0.0 3.2 0.03 1.04 0.08 93 1015.3
20260901110509 20 301 0.0 8.0 0.03 1.04 0.08 93 1015.0
20260901110010 19 300 1.6 8.0 0.03 1.04 0.08 94 1014.8
20260901105509 19 223 0.0 0.0 0.03 1.04 0.08 93 1014.7
20260901105011 19 222 0.0 0.0 0.03 1.04 0.08 93 1014.8
20260901104510 19 222 0.0 0.0 0.03 1.04 0.08 93 1015.1
20260901104010 19 222 0.0 0.0 0.03 1.04 0.08 93 1015.1
20260901103508 19 222 0.0 0.0 0.03 1.04 0.08 93 1015.3
20260901103008 19 222 0.0 0.0 0.00 1.02 0.05 93 1015.3
20260901102508 19 223 0.0 0.0 0.00 1.02 0.05 93 1015.4
20260901102008 19 223 0.0 0.0 0.00 1.02 0.05 93 1015.2
20260901101508 19 223 0.0 0.0 0.00 1.02 0.05 93 1015.1
20260901101010 19 222 0.0 0.0 0.00 1.02 0.05 93 1015.0
20260901100509 19 223 0.0 0.0 0.00 1.02 0.05 93 1015.0
20260901100006 19 222 0.0 0.0 0.00 1.02 0.05 93 1015.1
20260901095505 19 222 0.0 0.0 0.00 1.02 0.05 93 1015.1
20260901095007 19 222 0.0 0.0 0.00 1.02 0.05 93 1015.1
20260901094506 19 222 0.0 0.0 0.00 1.02 0.05 93 1015.1
20260901094004 19 223 0.0 0.0 0.00 1.02 0.05 93 1015.1
20260901093504 19 223 0.0 0.0 0.00 1.02 0.05 93 1015.1
20260901093005 19 222 0.0 0.0 0.00 1.02 0.05 93 1015.2
20260901092503 19 222 0.0 0.0 0.00 1.02 0.05 93 1015.3
20260901092003 19 222 0.0 0.0 0.00 1.02 0.05 93 1015.3
20260901091504 19 223 0.0 0.0 0.00 1.02 0.05 93 1015.4
20260901091003 19 223 0.0 0.0 0.00 1.02 0.05 93 1015.4
20260901090502 19 222 0.0 0.0 0.03 1.02 0.05 93 1015.3
20260901090007 19 222 0.0 0.0 0.03 1.02 0.05 93 1015.4
20260901085502 19 222 0.0 0.0 0.03 1.02 0.05 93 1015.6
20260901085105 19 222 0.0 0.0 0.03 1.02 0.05 93 1015.7
20260901084604 19 222 0.0 0.0 0.05 1.02 0.05 93 1016.0
20260901084100 19 223 0.0 0.0 0.05 1.02 0.05 93 1015.9
20260901083601 19 222 0.0 0.0 0.05 1.02 0.05 93 1016.0
20260901083059 19 222 0.0 0.0 0.05 1.02 0.05 93 1016.0
20260901082557 19 222 0.0 0.0 0.05 1.02 0.05 93 1016.0
20260901082059 19 223 0.0 0.0 0.05 1.02 0.05 93 1016.0
20260901081558 19 222 0.0 0.0 0.05 1.02 0.05 93 1016.1
20260901081057 19 222 0.0 0.0 0.05 1.02 0.05 93 1016.2
20260901080557 19 223 0.0 0.0 0.03 0.99 0.03 93 1016.2
20260901080104 19 222 0.0 0.0 0.03 0.99 0.03 93 1016.2
20260901075557 19 222 0.0 0.0 0.03 0.99 0.03 93 1016.2
20260901075056 19 222 0.0 0.0 0.03 0.99 0.03 93 1016.3
20260901074557 19 222 0.0 0.0 0.00 0.97 0.00 93 1016.3
20260901074055 19 130 0.0 0.0 0.00 0.97 0.00 93 1016.2
20260901073555 19 130 0.0 0.0 0.00 0.97 0.00 93 1016.1
20260901073101 19 130 0.0 0.0 0.00 0.97 0.00 93 1016.2
20260901072555 19 130 0.0 0.0 0.00 0.97 0.00 93 1016.2
20260901072055 19 130 0.0 0.0 0.00 0.97 0.00 93 1016.2
20260901071558 19 130 0.0 0.0 0.00 0.97 0.00 93 1016.2
20260901071057 19 130 0.0 0.0 0.00 0.97 0.00 93 1016.3
20260901070554 19 130 0.0 0.0 0.00 0.97 0.00 93 1016.3
20260901070104 19 130 0.0 0.0 0.00 0.97 0.00 93 1016.2
20260901065554 19 130 0.0 0.0 0.00 0.97 0.00 93 1016.3
20260901065054 19 130 0.0 0.0 0.00 0.97 0.00 93 1016.3
20260901064554 19 130 0.0 0.0 0.00 0.97 0.00 93 1016.3
20260901064054 19 130 0.0 0.0 0.00 0.97 0.00 93 1016.2
20260901063553 19 130 0.0 0.0 0.00 0.97 0.00 93 1016.2
20260901063054 19 130 0.0 0.0 0.00 0.97 0.00 93 1016.1
20260901062554 19 130 0.0 0.0 0.00 0.97 0.00 92 1016.2
20260901062053 19 130 0.0 0.0 0.00 0.97 0.00 92 1016.4
20260901061551 19 130 0.0 0.0 0.00 0.97 0.00 92 1016.4
20260901061050 19 130 0.0 0.0 0.00 0.97 0.00 92 1016.5
20260901060549 19 130 0.0 0.0 0.00 0.97 0.00 92 1016.6
20260901060048 19 130 0.0 0.0 0.00 0.97 0.00 92 1016.6
20260901055548 19 130 0.0 0.0 0.00 0.97 0.00 92 1016.8
20260901055048 19 130 0.0 0.0 0.00 0.97 0.00 92 1016.7
20260901054548 19 130 0.0 0.0 0.00 0.97 0.00 92 1016.7
20260901054049 19 130 0.0 0.0 0.00 0.97 0.00 92 1016.8
20260901053546 19 130 0.0 0.0 0.00 0.97 0.00 92 1016.9
20260901053052 19 130 0.0 0.0 0.00 0.97 0.00 92 1016.9
20260901052546 19 130 0.0 0.0 0.00 0.97 0.00 92 1016.9
20260901052045 19 130 0.0 0.0 0.00 0.97 0.00 92 1017.0
20260901051647 19 130 0.0 0.0 0.00 0.97 0.00 92 1017.1
20260901051044 19 130 0.0 0.0 0.00 0.97 0.00 92 1017.1
20260901050544 19 130 0.0 0.0 0.00 0.97 0.00 92 1017.1
20260901050051 19 130 0.0 0.0 0.00 0.97 0.00 92 1017.0
20260901045544 19 130 0.0 0.0 0.00 0.97 0.00 92 1017.0
20260901045044 19 130 0.0 0.0 0.00 0.97 0.00 92 1017.0
20260901044555 19 130 0.0 0.0 0.00 0.97 0.00 92 1017.0
20260901044042 19 130 0.0 0.0 0.00 0.97 0.00 92 1017.1
20260901043542 19 130 0.0 0.0 0.00 0.97 0.00 92 1017.1
20260901043042 19 130 0.0 0.0 0.00 0.97 0.00 92 1017.2
20260901042544 19 130 0.0 0.0 0.03 0.97 0.00 92 1017.1
20260901042041 19 130 0.0 0.0 0.03 0.97 0.00 92 1017.1
20260901041541 19 130 0.0 0.0 0.03 0.97 0.00 92 1017.1
20260901041043 20 130 0.0 0.0 0.03 0.97 0.00 92 1017.0
20260901040539 20 130 0.0 0.0 0.03 0.97 0.00 92 1017.1
20260901040048 20 130 0.0 0.0 0.03 0.97 0.00 92 1017.1
20260901035538 20 130 0.0 0.0 0.03 0.97 0.97 92 1017.1
20260901035038 20 130 0.0 0.0 0.03 0.97 0.97 92 1017.1
20260901034542 20 130 0.0 0.0 0.03 0.97 0.97 92 1017.0
20260901034038 20 130 0.0 0.0 0.03 0.97 0.97 92 1017.1
20260901033538 20 130 0.0 0.0 0.03 0.97 0.97 92 1017.1
20260901033053 20 130 0.0 0.0 0.03 0.97 0.97 92 1017.1
20260901032537 20 130 0.0 0.0 0.00 0.94 0.94 92 1017.1
20260901032037 20 130 0.0 0.0 0.00 0.94 0.94 92 1017.1
20260901031537 20 130 0.0 0.0 0.00 0.94 0.94 92 1017.2
20260901031037 20 130 0.0 0.0 0.00 0.94 0.94 92 1017.2
20260901030538 20 130 0.0 0.0 0.00 0.94 0.94 92 1017.2
20260901030037 20 130 0.0 0.0 0.00 0.94 0.94 92 1017.0
20260901025537 20 130 0.0 0.0 0.00 0.94 0.94 92 1017.1
20260901025038 20 130 0.0 0.0 0.00 0.94 0.94 92 1017.1
20260901024537 20 130 0.0 0.0 0.00 0.94 0.94 92 1017.1
20260901024036 20 130 0.0 0.0 0.00 0.94 0.94 92 1017.2
20260901023536 20 130 0.0 0.0 0.00 0.94 0.94 92 1017.3
20260901023039 20 130 0.0 0.0 0.00 0.94 0.94 92 1017.4
20260901022538 20 130 0.0 3.2 0.00 0.94 0.94 92 1017.3
20260901022035 20 130 0.0 3.2 0.00 0.94 0.94 92 1017.3
20260901021551 20 130 0.0 3.2 0.00 0.94 0.94 92 1017.3
20260901021035 20 130 0.0 3.2 0.00 0.94 0.94 92 1017.4
20260901020535 20 130 0.0 4.8 0.00 0.94 0.94 92 1017.5
20260901020035 20 130 0.0 4.8 0.00 0.94 0.94 92 1017.3
20260901015534 20 121 1.6 6.4 0.00 0.94 0.94 92 1017.4
20260901015034 20 344 3.2 8.0 0.00 0.94 0.94 92 1017.5
20260901014534 20 147 0.0 3.2 0.00 0.94 0.94 92 1017.5
20260901014034 20 346 0.0 6.4 0.00 0.94 0.94 92 1017.4
20260901013534 20 259 0.0 0.0 0.00 0.94 0.94 92 1017.7
20260901013047 20 211 0.0 0.0 0.00 0.94 0.94 91 1017.6
20260901012533 20 211 0.0 0.0 0.03 0.94 0.94 91 1017.7
20260901012033 20 205 0.0 0.0 0.03 0.94 0.94 91 1017.7
20260901011547 20 202 0.0 0.0 0.03 0.94 0.94 91 1017.8
20260901011033 20 75 0.0 0.0 0.03 0.94 0.94 92 1017.7
20260901010535 20 133 0.0 0.0 0.03 0.94 0.94 91 1017.7
20260901010033 20 133 0.0 0.0 0.03 0.94 0.94 91 1017.6
20260901005533 20 133 0.0 0.0 0.03 0.94 0.94 92 1017.7
20260901005036 20 133 0.0 0.0 0.03 0.94 0.94 92 1017.6
20260901004532 20 133 0.0 0.0 0.03 0.94 0.94 92 1017.4
20260901004032 20 133 0.0 0.0 0.03 0.94 0.94 91 1017.4
20260901003531 20 133 0.0 0.0 0.03 0.94 0.94 92 1017.3
20260901003040 20 133 0.0 0.0 0.03 0.94 0.94 91 1017.3
20260901002531 20 133 0.0 0.0 0.00 0.91 0.91 91 1017.2
20260901002032 20 133 0.0 0.0 0.00 0.91 0.91 91 1017.1
20260901001531 20 133 0.0 0.0 0.00 0.91 0.91 91 1017.1
20260901001032 20 133 0.0 0.0 0.00 0.91 0.91 91 1017.1
20260901000531 20 133 0.0 0.0 0.00 0.91 0.91 91 1017.1
20260901000033 20 133 0.0 0.0 0.00 0.91 0.91 91 1017.2
20260831235529 20 133 0.0 0.0 0.00 0.91 0.91 91 1017.2
20260831235030 20 133 0.0 0.0 0.00 0.91 0.91 91 1017.2
20260831234529 20 133 0.0 0.0 0.00 0.91 0.91 91 1017.3
20260831234027 20 133 0.0 0.0 0.00 0.91 0.91 91 1017.2
20260831233528 20 133 0.0 0.0 0.03 0.91 0.91 91 1017.3
20260831233028 20 133 0.0 0.0 0.03 0.91 0.91 91 1017.4
20260831232527 20 133 0.0 0.0 0.03 0.91 0.91 91 1017.4
20260831232027 20 133 0.0 0.0 0.05 0.91 0.91 91 1017.4
20260831231526 20 133 0.0 0.0 0.05 0.91 0.91 91 1017.4
20260831231026 20 133 0.0 0.0 0.05 0.91 0.91 91 1017.5
20260831230525 20 133 0.0 0.0 0.05 0.91 0.91 91 1017.5
20260831230025 20 133 0.0 0.0 0.05 0.91 0.91 91 1017.6
20260831225524 20 133 0.0 0.0 0.05 0.91 0.91 91 1017.7
20260831225024 20 133 0.0 0.0 0.08 0.91 0.91 91 1017.7
20260831224524 20 133 0.0 0.0 0.08 0.91 0.91 91 1017.7
20260831224024 20 133 0.0 0.0 0.05 0.89 0.89 91 1017.8
20260831223522 20 133 0.0 0.0 0.05 0.89 0.89 91 1017.9
20260831223028 20 133 0.0 0.0 0.05 0.89 0.89 91 1018.0
20260831222523 20 133 0.0 0.0 0.08 0.89 0.89 91 1018.1
20260831222020 20 133 0.0 0.0 0.05 0.86 0.86 91 1018.1
20260831221520 20 133 0.0 0.0 0.05 0.86 0.86 91 1018.2
20260831221019 20 133 0.0 0.0 0.05 0.86 0.86 91 1018.3
20260831220518 20 133 0.0 0.0 0.05 0.86 0.86 91 1018.4
20260831220025 20 133 0.0 1.6 0.05 0.86 0.86 91 1018.3
20260831215518 20 133 0.0 1.6 0.05 0.86 0.86 91 1018.3
20260831215019 20 133 0.0 0.0 0.03 0.84 0.84 91 1018.3
20260831214518 20 133 0.0 0.0 0.03 0.84 0.84 91 1018.3
20260831214018 20 133 0.0 0.0 0.03 0.84 0.84 91 1018.4
20260831213518 20 133 0.0 0.0 0.03 0.84 0.84 91 1018.3
20260831213018 20 133 0.0 0.0 0.03 0.84 0.84 91 1018.4
20260831212518 20 133 0.0 1.6 0.03 0.81 0.81 91 1018.4
20260831212018 20 133 0.0 1.6 0.03 0.81 0.81 91 1018.5
20260831211528 20 133 0.0 0.0 0.03 0.81 0.81 91 1018.5
20260831211016 21 133 0.0 0.0 0.03 0.81 0.81 91 1018.5
20260831210521 21 133 0.0 0.0 0.03 0.81 0.81 91 1018.5
20260831210017 21 133 0.0 0.0 0.05 0.81 0.81 91 1018.5
20260831205517 21 133 0.0 1.6 0.08 0.81 0.81 91 1018.3
20260831205021 21 133 0.0 1.6 0.10 0.81 0.81 91 1018.4
20260831204517 21 133 0.0 4.8 0.10 0.81 0.81 91 1018.4
20260831204017 21 133 0.0 4.8 0.10 0.81 0.81 91 1018.4